RH
66 67 67 65 64 69 64 58 64 52 57 75 90 83 67 61 57 53 60 62 71 76 77 86 89 95 97 63 100 100 87 73 66 62 44 35 28 29 27 36 42 50 42 25
66 67 68 66 64 69 68 88 64 49 58 94 91 65 58 59 62 63 65 70 64 58 73 84 75 73 57 52 99 100 98 82 93 91 67 45 40 32 26 24 31 33 44 25
66 67 67 67 66 67 66 90 91 66 69 73 86 83 71 65 56 62 62 68 57 65 69 60 70 59 57 51 92 96 96 77 58 57 55 44 49 38 32 28 36 30 30 22
65 66 67 67 66 67 65 94 99 96 98 94 90 84 89 83 82 62 58 64 67 83 88 70 63 61 61 58 71 96 97 92 70 66 58 50 44 44 40 39 31 34 26 32
65 66 65 67 67 64 80 94 91 88 94 93 84 83 86 90 81 85 80 83 75 80 92 90 91 86 68 78 67 88 93 99 78 76 59 56 55 47 42 40 36 33 33 32
66 65 66 64 68 68 84 84 77 82 93 91 85 90 85 82 72 65 61 67 74 79 70 65 65 69 76 82 92 90 96 95 99 96 71 72 80 60 50 45 66 69 49 61
67 65 66 64 66 73 84 88 84 86 89 85 88 85 84 88 78 87 59 42 61 53 45 66 70 82 84 87 84 79 94 96 98 100 95 92 78 58 61 72 73 67 66 66
70 66 65 66 65 71 74 85 86 91 91 83 77 86 91 74 71 80 63 34 36 44 71 85 80 82 89 89 81 78 82 92 95 98 93 90 72 79 82 87 86 64 70 63
72 70 64 66 67 67 72 88 90 88 92 81 81 85 90 88 88 84 63 38 43 60 70 85 94 87 86 81 83 72 78 89 96 95 95 96 87 82 72 71 89 62 66 68
72 70 64 66 66 67 77 86 86 85 92 79 81 83 93 90 92 90 79 71 61 54 86 88 92 82 82 82 85 87 79 84 91 92 92 95 82 73 84 92 83 64 64 67
72 70 67 64 66 70 74 86 82 83 90 77 85 86 91 89 76 87 84 49 56 84 89 86 87 85 75 82 90 93 83 88 83 84 93 95 71 60 83 88 72 63 59 63
72 73 68 62 66 73 73 85 79 80 88 82 78 79 98 76 70 74 79 65 66 84 88 91 87 82 79 88 78 71 87 88 83 85 78 66 61 58 78 56 61 56 58 55
70 73 71 62 69 71 70 85 86 76 88 82 75 91 63 36 35 55 72 69 86 85 85 90 92 89 84 84 78 79 73 72 85 79 81 60 49 68 50 46 54 51 52 57
71 70 72 62 70 68 72 83 86 79 85 88 79 62 75 33 32 36 61 57 80 88 87 93 94 91 84 78 69 66 59 65 70 76 72 61 82 67 52 56 53 54 51 54
73 72 73 61 64 72 81 87 85 79 84 81 77 72 69 33 33 42 55 59 74 93 95 95 94 88 84 79 70 74 64 70 58 52 56 74 64 61 62 73 69 63 65 64
73 73 74 60 69 80 83 90 88 76 80 93 82 70 59 41 36 42 50 70 90 93 94 95 92 90 88 90 83 71 75 75 79 71 64 73 71 67 68 74 74 72 75 67
73 72 72 60 75 72 66 71 73 72 80 91 71 58 48 56 46 48 53 65 88 90 92 91 76 72 78 90 87 69 76 80 82 83 89 86 80 76 82 81 82 86 83 78
74 76 62 65 69 74 77 78 58 54 65 73 70 60 41 53 60 53 60 70 83 86 84 68 57 59 72 84 70 76 79 82 85 86 85 82 86 90 88 82 85 90 89 86
77 60 65 68 63 75 82 60 54 52 65 75 69 60 63 46 59 65 69 76 92 77 81 62 55 65 78 55 70 76 77 85 83 86 91 94 94 88 86 86 89 90 90 88
58 53 73 85 82 63 46 53 75 82 86 84 61 68 62 50 50 66 69 78 84 92 76 57 75 60 58 68 73 77 82 88 93 100 91 90 90 87 91 92 91 92 92 92
87 98 93 84 57 56 75 74 71 74 61 62 70 64 51 64 59 63 76 90 87 93 79 72 76 70 72 85 87 90 90 91 94 93 92 94 95 96 95 93 88 90 90 92
89 92 81 59 66 81 59 74 65 58 52 69 68 74 67 78 75 82 85 89 88 89 77 87 82 76 73 86 89 89 92 96 95 95 97 95 95 95 96 96 94 93 92 92
95 83 59 78 76 59 56 57 71 73 74 86 87 84 79 87 84 92 88 96 89 64 92 82 74 70 78 88 91 91 93 96 97 95 94 95 96 94 97 97 93 94 95 92
99 96 95 74 80 73 72 70 78 73 74 73 69 86 79 86 90 93 95 81 83 94 98 79 67 75 77 88 91 96 94 96 96 95 94 97 97 97 95 95 96 96 94 92
98 96 95 88 72 82 83 87 79 80 71 76 90 91 75 90 92 93 91 97 96 86 73 68 64 72 79 87 92 94 95 97 100 96 98 99 98 99 96 94 95 93 93 91
98 97 96 82 78 86 86 87 90 83 83 91 94 95 93 80 86 94 94 85 81 69 79 64 66 76 79 81 85 88 93 96 97 97 97 96 100 99 96 93 94 94 91 91
97 96 89 88 87 89 87 84 90 88 93 96 95 96 91 91 86 92 82 86 70 76 73 65 68 76 81 82 83 86 92 95 97 100 98 96 96 98 95 93 91 90 89 93
Wind_Speed
29 30 31 32 32 27 8 3 5 9 11 7 3 4 4 8 9 10 5 6 9 8 6 6 7 6 7 13 9 5 2 3 10 23 5 7 16 19 16 9 10 0 2 2
30 30 31 32 31 20 2 4 3 6 7 7 4 4 7 4 11 11 9 8 11 13 5 6 8 7 6 9 5 6 3 7 9 5 5 2 16 17 21 16 3 13 5 5
29 30 31 32 32 21 3 3 4 5 6 6 5 6 9 10 6 3 8 7 8 13 6 6 5 7 3 11 9 12 6 4 6 10 15 8 19 21 17 21 14 13 14 10
29 28 29 32 32 21 3 5 3 1 5 7 6 3 6 12 11 5 9 5 17 11 5 9 6 7 10 6 15 9 5 3 1 3 1 13 14 18 18 18 20 18 12 11
28 27 27 29 31 17 6 4 2 2 2 3 4 10 8 9 8 5 7 8 16 9 4 5 8 12 6 5 9 9 12 2 1 4 3 7 15 13 15 17 17 18 15 16
27 25 24 25 27 13 4 3 2 1 4 3 1 5 8 7 11 5 7 12 13 7 8 12 17 15 13 14 10 8 8 7 2 4 2 7 3 5 13 11 11 8 14 4
26 24 21 21 20 12 3 2 1 1 2 2 3 5 7 10 10 6 10 11 6 5 18 18 4 5 7 6 6 6 6 6 4 3 3 6 7 12 16 20 14 14 10 12
24 23 20 18 15 11 4 1 2 2 2 3 1 10 6 8 9 4 4 11 8 15 10 4 3 2 1 3 5 2 6 3 4 3 6 8 6 14 10 7 8 15 14 17
23 23 20 16 13 5 3 3 1 3 1 2 1 4 4 6 9 6 4 13 8 10 3 4 7 6 5 6 3 5 2 4 2 4 4 3 4 14 8 5 4 16 16 16
22 23 20 15 13 5 3 2 3 1 1 1 3 3 3 3 2 4 5 11 9 10 6 5 6 5 6 5 6 7 5 4 4 4 3 5 8 16 3 6 5 16 16 15
20 22 21 15 11 4 2 1 3 1 2 1 3 3 2 0 1 3 6 4 3 6 7 4 3 3 5 2 3 5 5 5 3 2 4 2 15 3 4 5 8 14 15 13
20 21 21 15 11 6 2 1 1 2 1 1 2 3 1 1 3 1 2 2 1 3 2 1 1 1 2 4 1 3 2 3 3 4 4 7 7 5 6 6 10 13 17 18
18 20 21 16 9 6 4 1 2 1 1 0 1 3 4 3 3 2 2 2 2 1 2 2 1 0 2 1 1 3 3 1 3 6 3 9 10 10 7 13 14 16 15 18
18 19 19 16 5 4 4 2 1 1 2 1 2 1 1 4 6 3 3 0 1 1 1 2 1 1 3 1 2 3 1 3 3 6 5 10 5 3 16 19 17 17 18 18
18 19 18 14 5 4 4 2 2 1 1 2 1 2 2 4 5 2 3 4 2 2 2 2 1 2 2 2 1 3 5 5 3 2 1 5 12 13 20 19 19 20 20 23
17 18 17 12 2 6 1 1 2 1 2 1 1 2 3 5 4 6 4 2 2 2 1 2 2 1 2 3 3 2 6 7 5 4 3 11 19 18 16 16 21 20 19 20
16 17 15 5 4 2 1 0 1 1 1 1 2 1 2 4 2 2 2 2 1 1 2 2 2 2 1 2 4 7 12 10 8 8 6 8 7 8 14 17 17 18 18 16
15 14 10 4 6 7 1 2 2 3 4 1 1 1 1 6 2 1 3 2 1 2 2 3 2 3 1 6 5 6 5 5 8 9 9 10 14 13 13 13 13 15 14 15
13 7 5 3 2 1 1 4 6 3 0 1 1 1 1 3 2 2 1 2 1 1 1 2 2 3 7 6 6 7 9 7 5 6 9 9 10 13 12 13 13 14 15 15
3 2 2 2 2 4 1 1 0 2 3 2 1 1 0 2 1 2 2 2 1 2 1 1 3 5 3 6 6 6 6 6 3 3 4 4 8 10 12 13 12 13 14 15
2 3 2 1 6 0 1 2 1 1 1 2 1 1 1 2 1 1 2 1 1 2 2 3 3 6 5 6 7 5 5 5 6 7 7 8 10 11 12 13 12 13 14 14
2 2 2 2 2 2 0 2 0 4 3 4 3 3 1 2 1 1 1 1 1 4 2 2 5 5 4 8 7 6 6 5 6 6 7 7 9 9 9 10 11 11 13 13
3 3 2 2 2 3 6 6 4 4 7 7 5 3 2 2 1 2 2 3 4 1 3 6 6 1 5 7 5 5 5 5 5 5 4 5 7 7 4 8 8 10 10 10
2 3 5 5 5 8 7 5 1 2 4 8 5 5 2 2 3 1 3 1 1 3 5 9 3 8 8 8 5 5 6 7 6 6 4 5 5 6 7 6 7 7 8 9
5 5 7 9 6 3 1 2 4 2 5 5 5 4 1 2 3 2 2 2 6 8 7 4 3 6 9 8 7 8 6 5 5 4 3 3 4 5 6 6 6 7 7 7
5 6 4 2 2 2 2 4 3 4 5 3 3 4 3 5 3 4 10 5 10 5 5 2 5 8 7 7 8 7 5 5 5 4 3 3 2 3 5 5 5 5 6 7
7 7 5 2 3 4 2 4 6 8 6 4 4 7 7 4 2 6 7 9 4 3 3 4 7 9 8 7 7 7 6 6 5 3 4 3 2 3 2 3 4 4 5 5
Wind_Direction
6 5 3 2 1 356 30 32 52 346 341 52 28 44 8 342 344 354 355 342 347 348 327 338 12 7 355 16 323 326 351 247 164 184 72 256 207 203 198 200 188 152 313 159
6 7 4 3 6 16 2 62 353 352 5 58 27 6 18 38 8 4 352 358 352 345 319 350 5 340 324 351 347 346 2 197 126 119 290 228 207 208 206 221 209 207 198 142
8 6 7 5 4 14 68 75 38 11 48 55 27 6 13 1 9 52 357 350 359 347 345 347 309 327 302 332 3 345 279 272 226 187 194 176 199 207 206 213 217 218 217 235
10 7 9 7 3 9 69 21 67 348 5 22 24 30 342 1 5 6 5 354 1 352 316 334 341 350 332 7 6 354 21 246 37 28 140 195 205 202 198 215 226 230 220 224
12 10 10 14 5 9 65 82 79 70 64 352 5 19 5 350 340 321 343 359 336 326 281 306 303 334 337 4 335 352 348 329 218 208 22 199 204 201 209 219 216 231 237 245
15 12 11 21 16 18 63 29 68 276 353 23 53 9 339 332 346 283 291 329 329 312 313 311 288 278 272 281 303 342 353 348 327 213 58 115 226 291 231 205 45 335 239 353
15 14 11 19 31 40 56 33 347 10 63 44 37 355 339 325 325 292 311 335 326 279 320 301 254 234 255 266 269 245 309 325 291 155 189 199 83 26 30 95 54 19 355 343
9 14 10 13 35 47 57 10 16 54 86 325 75 1 356 321 324 297 271 354 297 308 303 343 352 84 145 83 46 184 224 306 326 303 205 112 33 24 359 1 66 18 352 342
6 11 11 7 18 62 73 38 345 65 112 45 322 354 341 349 336 322 267 337 326 338 340 30 24 33 335 15 64 65 196 227 312 326 307 174 358 330 314 255 181 5 355 347
2 5 8 4 1 63 88 49 1 120 116 168 278 30 337 325 311 279 300 345 340 354 11 56 28 11 314 17 18 344 348 354 1 331 309 112 4 322 324 196 20 338 338 337
1 360 5 359 358 63 93 75 5 308 152 230 217 294 339 23 73 350 320 323 6 354 44 31 34 1 21 340 24 351 351 324 12 275 273 150 10 11 22 358 320 328 325 321
357 358 1 355 357 30 107 82 32 331 228 25 350 357 308 179 157 253 355 331 277 358 346 26 210 74 342 349 30 39 230 15 313 313 19 5 350 288 85 7 329 323 317 318
354 354 358 352 4 38 84 102 28 57 349 216 257 193 180 58 26 207 290 227 272 266 333 317 338 105 269 332 20 288 151 348 255 321 88 325 319 148 4 353 330 318 316 315
346 350 356 347 33 42 107 83 54 67 71 208 156 60 159 108 12 210 222 122 206 249 260 264 283 268 331 178 69 253 45 320 317 266 309 319 120 224 337 331 324 319 318 311
338 341 354 342 342 117 96 103 86 104 324 275 269 291 60 29 3 27 157 191 209 218 191 212 171 95 163 45 311 239 187 176 224 299 156 261 282 306 318 314 317 319 316 313
328 336 348 334 279 138 171 209 188 1 194 148 286 48 17 355 11 45 42 38 200 258 122 110 103 6 246 200 241 173 176 187 198 251 218 287 281 293 300 313 311 311 305 306
321 330 338 306 142 117 244 286 37 58 135 122 297 245 57 347 11 53 356 5 43 358 113 111 148 169 142 193 238 173 195 200 239 257 297 273 243 299 310 299 297 300 297 293
317 335 331 166 115 116 181 30 46 106 99 62 193 254 180 4 27 14 353 349 334 48 117 155 165 156 216 241 207 162 184 243 263 247 219 267 291 297 291 295 302 306 305 307
328 339 102 78 52 214 159 315 74 58 282 186 178 223 215 7 38 332 2 349 185 47 179 153 199 170 227 223 173 195 193 194 183 232 263 260 261 285 298 308 308 309 309 311
27 62 53 295 204 290 20 64 166 36 351 39 225 72 178 338 2 85 323 9 23 252 127 154 217 256 253 202 188 176 189 210 175 278 288 271 288 300 302 303 300 294 298 302
39 21 270 338 321 151 28 266 215 86 225 181 138 199 162 25 311 104 34 115 337 253 141 261 225 256 221 172 176 186 204 205 206 228 263 270 277 293 302 306 308 304 303 303
112 122 87 344 27 36 222 237 323 218 224 160 171 149 98 97 339 145 68 227 141 247 58 253 246 237 184 168 188 198 194 204 234 208 245 265 268 266 277 285 297 303 303 304
60 45 2 53 267 247 198 209 223 231 172 172 164 142 125 132 76 89 163 200 225 323 222 237 240 185 179 182 163 193 203 210 239 254 232 253 270 281 264 292 300 306 307 318
196 177 244 203 214 241 197 204 230 69 120 143 129 107 152 140 133 104 198 116 262 243 242 233 218 205 183 176 181 165 196 197 224 243 267 285 290 297 299 295 309 315 323 337
187 168 227 213 238 252 203 108 123 85 120 118 101 83 138 113 150 209 113 187 243 227 231 227 202 166 159 174 185 201 199 203 223 232 230 247 292 303 305 316 330 338 334 357
183 214 255 217 315 240 187 179 145 155 137 101 78 121 146 214 162 173 215 191 225 229 217 205 141 156 167 182 193 194 187 193 215 223 238 255 246 292 305 317 355 350 0 8
205 233 227 216 284 260 164 153 150 151 159 173 153 186 197 102 203 238 198 216 229 204 179 173 168 171 180 180 186 190 189 202 209 221 228 240 281 279 306 357 358 357 8 8